TA3MHA Weather Reports


time (UTC)temp
C
wind
direction
speed
KPH
gust
KPH
rain 1hr
cm
rain 24hr
cm
rain mn
cm
humidity
%
barometer
mb
20260504050500 8 105 8.0 8.0 0.00 0.00 0.00 66
20260504050000 8 36 0.0 3.2 0.00 0.00 0.00 68
20260504045500 7 309 1.6 3.2 0.00 0.00 0.00 70
20260504045000 7 146 3.2 3.2 0.00 0.00 0.00 69
20260504044500 7 261 3.2 3.2 0.00 0.00 0.00 72
20260504044000 7 304 4.8 6.4 0.00 0.00 0.00 75
20260504043500 6 211 4.8 6.4 0.00 0.00 0.00 75
20260504043000 6 210 3.2 4.8 0.00 0.00 0.00 74
20260504042500 6 264 1.6 3.2 0.00 0.00 0.00 73
20260504042000 6 229 0.0 1.6 0.00 0.00 0.00 75
20260504041500 5 210 3.2 3.2 0.00 0.00 0.00 75
20260504041000 5 197 1.6 1.6 0.00 0.00 0.00 76
20260504040500 5 289 1.6 3.2 0.00 0.00 0.00 76
20260504040000 5 148 3.2 3.2 0.00 0.00 0.00 79
20260504035500 4 242 1.6 1.6 0.00 0.00 0.00 79
20260504035000 4 257 0.0 0.0 0.00 0.00 0.00 79
20260504034500 5 229 0.0 1.6 0.00 0.00 0.00 78
20260504034000 4 1 1.6 3.2 0.00 0.00 0.00 78
20260504033500 4 139 4.8 4.8 0.00 0.00 0.00 79
20260504033000 4 159 3.2 4.8 0.00 0.00 0.00 80
20260504032500 3 141 3.2 4.8 0.00 0.00 0.00 80
20260504032000 4 205 3.2 3.2 0.00 0.00 0.00 79
20260504031500 3 176 4.8 4.8 0.00 0.00 0.00 80
20260504031000 3 167 4.8 4.8 0.00 0.00 0.00 80
20260504030500 3 354 1.6 1.6 0.00 0.00 0.00 80
20260504030000 3 179 1.6 1.6 0.00 0.00 0.00 79
20260504025500 3 266 0.0 3.2 0.00 0.00 0.00 79
20260504025000 3 190 0.0 1.6 0.00 0.00 0.00 78
20260504024500 3 233 1.6 3.2 0.00 0.00 0.00 77
20260504024000 4 224 0.0 1.6 0.00 0.00 0.00 77
20260504023500 4 210 4.8 4.8 0.00 0.00 0.00 77
20260504023000 4 246 0.0 1.6 0.00 0.00 0.00 75
20260504022500 4 149 0.0 1.6 0.00 0.00 0.00 75
20260504022000 5 152 3.2 3.2 0.00 0.00 0.00 74
20260504021500 5 199 3.2 3.2 0.00 0.00 0.00 74
20260504021000 4 132 3.2 4.8 0.00 0.00 0.00 75
20260504020500 4 168 3.2 3.2 0.00 0.00 0.00 74
20260504020000 4 153 0.0 1.6 0.00 0.00 0.00 74
20260504015500 4 206 1.6 3.2 0.00 0.00 0.00 74
20260504015000 5 268 0.0 1.6 0.00 0.00 0.00 73
20260504014500 4 119 4.8 8.0 0.00 0.00 0.00 74
20260504014000 4 154 3.2 6.4 0.00 0.00 0.00 74
20260504013500 5 160 4.8 4.8 0.00 0.00 0.00 73
20260504013000 4 104 6.4 9.7 0.00 0.00 0.00 73
20260504012500 4 185 3.2 3.2 0.00 0.00 0.00 73
20260504012000 4 94 1.6 3.2 0.00 0.00 0.00 74
20260504011500 4 165 3.2 3.2 0.00 0.00 0.00 73
20260504011000 4 229 0.0 0.0 0.00 0.00 0.00 73
20260504010500 4 122 0.0 1.6 0.00 0.00 0.00 74
20260504010000 4 164 3.2 3.2 0.00 0.00 0.00 74
20260504005500 4 151 4.8 6.4 0.00 0.00 0.00 75
20260504005000 4 133 4.8 6.4 0.00 0.00 0.00 74
20260504004500 4 113 8.0 9.7 0.00 0.00 0.00 76
20260504004000 4 115 6.4 8.0 0.00 0.00 0.00 76
20260504003500 4 138 4.8 4.8 0.00 0.00 0.00 76
20260504003000 4 136 4.8 4.8 0.00 0.00 0.00 75
20260504002500 4 116 6.4 8.0 0.00 0.00 0.00 74
20260504002000 5 124 3.2 6.4 0.00 0.00 0.00 72
20260504001500 5 111 3.2 6.4 0.00 0.00 0.00 72
20260504001000 5 15 0.0 6.4 0.00 0.00 0.00 72
20260504000500 4 263 0.0 1.6 0.00 0.00 0.00 73
20260504000000 4 8 3.2 3.2 0.00 0.00 0.00 73
20260503235500 5 225 1.6 3.2 0.00 0.00 0.00 72
20260503235000 5 102 4.8 6.4 0.00 0.00 0.00 70
20260503234500 5 296 3.2 3.2 0.00 0.00 0.00 70
20260503234000 5 39 3.2 3.2 0.00 0.00 0.00 69
20260503233500 5 309 3.2 4.8 0.00 0.00 0.00 69
20260503233000 5 115 8.0 8.0 0.00 0.00 0.00 69
20260503232500 5 359 4.8 6.4 0.00 0.00 0.00 69
20260503232000 5 7 8.0 12.9 0.00 0.00 0.00 70
20260503231500 5 11 3.2 6.4 0.00 0.00 0.00 69
20260503231000 5 93 4.8 11.3 0.00 0.00 0.00 69
20260503230500 5 138 3.2 8.0 0.00 0.00 0.00 68
20260503230000 5 232 0.0 6.4 0.00 0.00 0.00 69
20260503225500 5 105 4.8 6.4 0.00 0.00 0.00 69
20260503225000 5 101 6.4 6.4 0.00 0.00 0.00 69
20260503224500 5 8 3.2 4.8 0.00 0.00 0.00 70
20260503224000 5 20 3.2 3.2 0.00 0.00 0.00 69
20260503223500 5 352 3.2 4.8 0.00 0.00 0.00 69
20260503223000 5 93 3.2 4.8 0.00 0.00 0.00 69
20260503222500 5 1 6.4 6.4 0.00 0.00 0.00 68
20260503222000 5 0 3.2 3.2 0.00 0.00 0.00 68
20260503221500 5 28 3.2 4.8 0.00 0.00 0.00 67
20260503221000 6 106 3.2 6.4 0.00 0.00 0.00 67
20260503220500 6 22 3.2 6.4 0.00 0.00 0.00 67
20260503220001 6 94 6.4 6.4 0.00 0.00 0.00 67
20260503215500 6 358 3.2 6.4 0.00 0.00 0.00 66
20260503215000 5 130 4.8 4.8 0.00 0.00 0.00 67
20260503214500 6 13 4.8 4.8 0.00 0.00 0.00 66
20260503214000 6 118 4.8 4.8 0.00 0.00 0.00 66
20260503213500 6 106 6.4 6.4 0.00 0.00 0.00 65
20260503213000 6 143 4.8 4.8 0.00 0.00 0.00 66
20260503212501 6 25 6.4 6.4 0.00 0.00 0.00 66
20260503212001 6 356 4.8 4.8 0.00 0.00 0.00 66
20260503211500 6 150 6.4 6.4 0.00 0.00 0.00 66
20260503211000 6 73 6.4 12.9 0.00 0.00 0.00 66
20260503210504 6 33 3.2 4.8 0.00 0.00 0.00 66
20260503210000 6 1 3.2 8.0 0.00 1.09 1.09 67
20260503205502 6 9 6.4 6.4 0.00 1.09 1.09 67
20260503205001 6 202 3.2 12.9 0.00 1.09 1.09 67
20260503204501 6 4 12.9 12.9 0.00 1.09 1.09 67
20260503204001 6 88 3.2 8.0 0.00 1.09 1.09 68
20260503203511 6 356 8.0 11.3 0.00 1.09 1.09 68
20260503203005 6 69 9.7 12.9 0.00 1.09 1.09 68
20260503202502 6 7 11.3 14.5 0.00 1.09 1.09 70
20260503202000 6 0 9.7 9.7 0.00 1.09 1.09 69
20260503201500 6 0 6.4 11.3 0.00 1.09 1.09 69
20260503201001 6 54 4.8 9.7 0.00 1.09 1.09 69
20260503200500 6 9 6.4 12.9 0.00 1.09 1.09 69
20260503200000 6 8 11.3 17.7 0.00 1.09 1.09 69
20260503195500 6 115 3.2 9.7 0.00 1.09 1.09 69
20260503195001 6 95 9.7 16.1 0.00 1.09 1.09 69
20260503194531 7 108 4.8 6.4 0.00 1.09 1.09 68
20260503194000 7 356 11.3 16.1 0.00 1.09 1.09 67
20260503193501 7 31 20.9 29.0 0.00 1.09 1.09 68
20260503193001 7 7 12.9 17.7 0.00 1.09 1.09 69
20260503192501 7 63 6.4 14.5 0.00 1.09 1.09 69
20260503192001 7 48 9.7 14.5 0.00 1.09 1.09 69
20260503191500 7 18 11.3 16.1 0.00 1.09 1.09 69
20260503191001 7 22 12.9 24.1 0.00 1.09 1.09 68
20260503190501 7 41 12.9 16.1 0.00 1.09 1.09 70
20260503190001 7 7 9.7 12.9 0.00 1.09 1.09 70
20260503185501 7 6 14.5 19.3 0.00 1.09 1.09 69
20260503185001 7 17 19.3 27.4 0.00 1.09 1.09 70
20260503184501 7 23 16.1 16.1 0.00 1.09 1.09 72
20260503184000 7 82 8.0 14.5 0.00 1.09 1.09 72
20260503183500 7 7 17.7 20.9 0.00 1.09 1.09 72
20260503183001 7 18 12.9 17.7 0.00 1.09 1.09 72
20260503182500 8 31 9.7 14.5 0.00 1.09 1.09 71
20260503182000 8 16 11.3 12.9 0.00 1.09 1.09 71
20260503181500 7 2 16.1 24.1 0.00 1.09 1.09 74
20260503180501 7 18 4.8 12.9 0.00 1.09 1.09 76
20260503180000 7 359 12.9 22.5 0.00 1.09 1.09 77
20260503175501 7 2 11.3 12.9 0.00 1.09 1.09 77
20260503175001 7 20 12.9 16.1 0.00 1.09 1.09 78
20260503174501 7 340 8.0 12.9 0.00 1.09 1.09 79
20260503174001 7 114 6.4 9.7 0.00 1.09 1.09 78
20260503173502 7 69 3.2 9.7 0.00 1.07 1.07 78
20260503173001 7 11 6.4 9.7 0.00 1.07 1.07 79
20260503172500 8 123 3.2 9.7 0.00 1.07 1.07 77
20260503172001 8 35 11.3 17.7 0.00 1.07 1.07 77
20260503171500 8 21 11.3 14.5 0.00 1.07 1.07 76
20260503171000 8 25 17.7 25.7 0.00 1.07 1.07 76
20260503170500 8 335 6.4 16.1 0.00 1.07 1.07 76
20260503151000 7 36 11.3 16.1 0.00 1.07 1.07 85
20260503150500 7 49 9.7 19.3 0.00 1.07 1.07 85
20260503131000 7 10 11.3 16.1 0.00 0.99 0.99 88
20260503130500 7 16 11.3 12.9 0.00 0.99 0.99 90
20260503110500 6 356 11.3 12.9 0.00 0.84 0.84 93
20260503090500 5 351 8.0 9.7 0.00 0.71 0.71 94
20260503081500 5 20 4.8 4.8 0.03 0.64 0.64 94
20260503081000 5 17 6.4 9.7 0.00 0.64 0.64 94
20260503080500 5 0 16.1 17.7 0.00 0.64 0.64 94
20260503072500 5 16 0.0 4.8 0.03 0.58 0.58 94
20260503072000 5 127 4.8 4.8 0.03 0.58 0.58 94
20260503071500 5 10 4.8 6.4 0.00 0.56 0.56 94
20260503071000 5 359 1.6 3.2 0.00 0.56 0.56 94
20260503070500 5 310 0.0 6.4 0.00 0.56 0.56 95
20260503055000 5 121 3.2 4.8 0.05 0.51 0.51 94
20260503054500 5 4 6.4 8.0 0.05 0.51 0.51 94
20260503054001 5 14 6.4 9.7 0.05 0.51 0.51 94
20260503053500 5 99 8.0 16.1 0.05 0.51 0.51 94
20260503053000 5 117 9.7 9.7 0.03 0.48 0.48 94
20260503052500 5 18 4.8 6.4 0.03 0.48 0.48 94